Location: *
(40.7873°S, 98.7174°E)
Time: 22:01:37
(UTC+00:00)

Cosmos 1153 Rocket - Pass Details

Date: 07 October 2022
Orbit: 953 x 1007 km, 82.9° (Epoch: 05 December)

Event Time Altitude Azimuth Distance (km) Brightness Sun altitude
Rises 18:36:20 0° 180° (S) 3,684 8.2 -39.7°
Reaches altitude 10° 18:39:06 10° 171° (S) 2,725 7.5 -39.5°
Enters shadow 18:43:35 34° 129° (SE) 1,551 5.8 -39.1°
